Location: Seattle
(47.6060°N, 122.3310°W)
Time: 13:51:22

ISS - Visible Passes

Search period start: 25 October 2016 00:00
Search period end: 04 November 2016 00:00
Orbit: 399 x 408 km, 51.6° (Epoch: 26 October)

Date Brightness Start Highest point End Pass type
(mag) Time Alt. Az. Time Alt. Az. Time Alt. Az.
01 Nov -1.0 07:15:25 10° SSW 07:18:11 26° SE 07:20:59 10° E visible
02 Nov -0.4 06:23:50 10° S 06:25:54 16° SE 06:27:58 10° E visible
03 Nov -2.5 07:06:18 10° SW 07:09:29 51° SSE 07:12:40 10° ENE visible
